This is the latest recevied weather packets stored in our database for station/object KD4KKF. If no packets are shown the sender has not sent any weather packets the latest 10 day(s).
| Time | Temp. | Humidity | Pressure | Rain* | Wind** | Luminosity | Snow |
|---|---|---|---|---|---|---|---|
| 1777943470 | 17.22° C | 79% | 1011.3 hPa | 0 mm | - | 0 W/m² | - |
| 1777943164 | 17.22° C | 78% | 1011.5 hPa | 0 mm | - | 0 W/m² | - |
| 1777942862 | 17.78° C | 79% | 1011.3 hPa | 0 mm | - | 0 W/m² | - |
| 1777942558 | 17.78° C | 76% | 1011.6 hPa | 0 mm | - | 0 W/m² | - |
| 1777942255 | 17.78° C | 76% | 1011.1 hPa | 0 mm | - | 0 W/m² | - |
| 1777941952 | 18.33° C | 75% | 1011.2 hPa | 0 mm | - | 0 W/m² | - |
| 1777941649 | 18.33° C | 74% | 1011.3 hPa | 0 mm | - | 0 W/m² | - |
| 1777941347 | 18.89° C | 73% | 1011.3 hPa | 0 mm | - | 0 W/m² | - |
| 1777941044 | 19.44° C | 72% | 1011.1 hPa | 0 mm | - | 4 W/m² | - |
| 1777940743 | 19.44° C | 71% | 1011 hPa | 0 mm | - | 7 W/m² | - |
| 1777940443 | 20° C | 68% | 1011 hPa | 0 mm | - | 9 W/m² | - |
| 1777940140 | 20° C | 63% | 1011 hPa | 0 mm | - | 12 W/m² | - |
| 1777939837 | 21.11° C | 65% | 1010.8 hPa | 0 mm | - | 21 W/m² | - |
| 1777939534 | 21.11° C | 65% | 1010.8 hPa | 0 mm | - | 21 W/m² | - |
| 1777939232 | 22.22° C | 62% | 1010.9 hPa | 0 mm | - | 26 W/m² | - |
| 1777938928 | 22.78° C | 54% | 1011.1 hPa | 0 mm | - | 29 W/m² | - |
| 1777938625 | 23.33° C | 50% | 1011.1 hPa | 0 mm | - | 33 W/m² | - |
| 1777938322 | 23.33° C | 51% | 1011 hPa | 0 mm | - | 35 W/m² | - |
| 1777938019 | 23.33° C | 53% | 1011.1 hPa | 0 mm | - | 38 W/m² | - |
| 1777937714 | 23.89° C | 51% | 1011 hPa | 0 mm | - | 41 W/m² | - |
| 1777937412 | 23.89° C | 50% | 1011.2 hPa | 0 mm | - | 46 W/m² | - |
| 1777937108 | 24.44° C | 50% | 1011.2 hPa | 0 mm | - | 45 W/m² | - |
| 1777936806 | 24.44° C | 49% | 1011 hPa | 0 mm | - | 55 W/m² | - |
| 1777936502 | 25° C | 48% | 1011.2 hPa | 0 mm | - | 55 W/m² | - |
| 1777936198 | 25° C | 46% | 1010.9 hPa | 0 mm | - | 153 W/m² | - |
* Rain latest hour (hover to see other rain measurements)
** Current wind speed in m/s (hover to see current wind gust speed)